Powrót do katalogu

SL-14 DEB

AktywnyPO
NORAD 45270·DEBRIS·🇷🇺 Russia

Wystrzelony Aug 15, 1991 z Plesetsk Cosmodrome

Loading…

Następne Przeloty (najbliższe 24 godziny)

TLE

ŚwieżeSource: Space-Track

Epoka: Sep 14, 2026, 04:02 UTC

1 45270U 91056G   26257.16821276  .00000109  00000-0  23022-3 0  9996
2 45270  82.5643  64.1690 0032522 176.1118 184.0267 13.22465614317815

Śledź SL-14 DEB w czasie rzeczywistym z AllMySat

Download on the App Store